Home   Weather   Metairie   Past weeks
Flag for USA

Past Weather in Metairie, Louisiana, USA — Yesterday and Last 2 Weeks

Now
78 °F

Cloudy.


Feels Like: 80 °F
Forecast: 87 / 80 °F
Wind: 5 mph from Northeast

Location: New Orleans International Airport

Current Time: Jun 24, 2019 at 11:19:36 am

Latest Report: Jun 24, 2019 at 9:53 am


Visibility: 10 mi

Pressure: 30.03 "Hg

Humidity: 74%

Dew Point: 69 °F

Location of MetairieLocation

Past Weather in Metairie — Graph

°F

Metairie Temperature Yesterday

Maximum temperature yesterday: 93 °F (at 12:53 pm)
Minimum temperature yesterday: 83 °F (at 1:53 am)
Average temperature yesterday: 87 °F

High & Low Weather Summary for the Past Weeks

 TemperatureHumidityPressure
High94 °F (Jun 20, 2:53 pm)91% (Jun 19, 4:53 am)30.12 "Hg (Jun 19, 4:53 am)
Low67 °F (Jun 13, 2:53 am)37% (Jun 13, 3:53 pm)29.83 "Hg (Jun 19, 7:53 pm)
Average84 °F68%29.98 "Hg
* Reported Jun 9 9:53 am — Jun 24 9:53 am, Metairie. Weather by CustomWeather, © 2019

Note: Actual official high and low records may vary slightly from our data, if they occured in-between our weather recording intervals... More about our weather records

Advertising

Metairie Weather History for the Previous 24 Hours

Scroll right to see more
 ConditionsComfort  
Time TempWeatherWind HumidityBarometerVisibility
9:53 am
Mon, Jun 24
78 °FCloudy.5 mph74%30.03 "Hg10 mi
8:53 am77 °FMostly cloudy.3 mph74%30.02 "Hg10 mi
8:10 am75 °FLight rain. Mostly cloudy.12 mph79%30.03 "Hg10 mi
7:18 am77 °FMostly cloudy.12 mph69%30.01 "Hg10 mi
6:53 am83 °FMostly cloudy.7 mph79%30.00 "Hg7 mi
5:53 am83 °FPartly cloudy.9 mph77%29.96 "Hg8 mi
4:53 am83 °FPartly cloudy.9 mph79%29.92 "Hg8 mi
3:53 am83 °FPartly cloudy.10 mph82%29.92 "Hg8 mi
2:53 am84 °FPartly cloudy.9 mph80%29.93 "Hg8 mi
1:53 am84 °FPartly cloudy.10 mph83%29.93 "Hg8 mi
12:53 am84 °FPartly cloudy.9 mph80%29.94 "Hg9 mi
11:53 pm
Sun, Jun 23
84 °FPassing clouds.10 mph80%29.95 "Hg10 mi
10:53 pm85 °FPassing clouds.9 mph77%29.96 "Hg10 mi
9:53 pm85 °FPassing clouds.10 mph77%29.95 "Hg10 mi
8:53 pm85 °FPassing clouds.9 mph75%29.94 "Hg10 mi
7:53 pm87 °FPartly sunny.12 mph69%29.95 "Hg10 mi
6:53 pm89 °FPartly sunny.13 mph65%29.95 "Hg10 mi
5:53 pm89 °FScattered clouds.14 mph65%29.94 "Hg10 mi
4:53 pm91 °FScattered clouds.14 mph61%29.96 "Hg10 mi
3:53 pm91 °FBroken clouds.14 mph64%29.98 "Hg10 mi
2:53 pm91 °FScattered clouds.14 mph61%30.00 "Hg10 mi
1:53 pm92 °FBroken clouds.14 mph60%30.01 "Hg9 mi
12:53 pm93 °FPartly sunny.15 mph56%30.02 "Hg10 mi
11:53 am90 °FBroken clouds.16 mph59%30.03 "Hg10 mi
Weather by CustomWeather, © 2019

See weather overview